SOYUZ-MS 15 (44550 NORAD) Tracking and Keplerian Element Data

This shows tracking and keplerian element data for the satellite.

Feedback or suggestion? Click here.




ElementValue
Catalog44550
NameSOYUZ-MS 15
Epoch Orbit20163
Epoch Day338.22182757
Epoch Year2019
RAAN238.3114
Inclination51.643
Eccentricity0.0006882
Argument of Perigee358.5315
Mean Anonmoly151.4187
Mean Motion15.50087058
Decay Rate6.04E-06
L11 44550U 19064A 19338.22182757 .00000604 00000-0 18564-4 0 9994
L22 44550 51.6430 238.3114 0006882 358.5315 151.4187 15.50087058201633

Live tracking and technical data element details for SOYUZ-MS 15 (NORAD 44550). SOYUZ-MS 15 can be tracked NOW for your location showing map with azimuth and elevation plus other details from your city location.

Track the satellite on the map from your city or location and see movement details for azimuth, elevation, latitude, longitude, range, height, and movement on the map or in text.







IsCatalogInMostPopularTable: catalog: 44550, numindb: 23
Update: records affected: 1



GetName: 44550 SOYUZ-MS 15

Hit Count: updated at: Thu, 05 Dec 2019 16:44:27 GMT